<?xml version="1.0" encoding="UTF-8" standalone="no" ?>
<gpx xmlns="http://www.topografix.com/GPX/1/1" xmlns:xsi="http://www.w3.org/2001/XMLSchema-instance" xsi:schemaLocation="http://www.topografix.com/GPX/1/1 http://www.topografix.com/GPX/1/1/gpx.xsd" version="1.1" creator="VisuGPX - https://www.visugpx.com">
  <metadata>
    <name>vtt 60 km autour de caidelle </name>
  </metadata>
  <trk>
    <name><![CDATA[2009MonflanquinDavidBas]]></name>
    <extensions>
      <line xmlns="http://www.topografix.com/GPX/gpx_style/0/2">
        <color>00FF00</color>
        <width>4</width>
      </line>
    </extensions>
    <trkseg>
      <trkpt lat="44.53022" lon="0.76868">
        <ele>152</ele>
        <time>2007-03-27T15:43:12Z</time>
      </trkpt>
      <trkpt lat="44.53026" lon="0.76873">
        <ele>152</ele>
        <time>2009-01-04T18:51:07Z</time>
      </trkpt>
      <trkpt lat="44.53037" lon="0.76884">
        <ele>154</ele>
        <time>2009-01-04T18:51:07Z</time>
      </trkpt>
      <trkpt lat="44.53051" lon="0.76871">
        <ele>157</ele>
        <time>2007-03-27T15:43:12Z</time>
      </trkpt>
      <trkpt lat="44.5306" lon="0.76847">
        <ele>160</ele>
        <time>2007-03-27T15:43:12Z</time>
      </trkpt>
      <trkpt lat="44.53065" lon="0.76827">
        <ele>161</ele>
        <time>2007-03-27T15:43:12Z</time>
      </trkpt>
      <trkpt lat="44.53071" lon="0.76806">
        <ele>161</ele>
        <time>2009-01-04T18:51:07Z</time>
      </trkpt>
      <trkpt lat="44.53075" lon="0.76792">
        <ele>161</ele>
        <time>2007-03-27T15:43:12Z</time>
      </trkpt>
      <trkpt lat="44.53081" lon="0.76781">
        <ele>161</ele>
        <time>2007-03-27T15:43:12Z</time>
      </trkpt>
      <trkpt lat="44.53089" lon="0.76779">
        <ele>163</ele>
        <time>2007-03-27T15:43:12Z</time>
      </trkpt>
      <trkpt lat="44.53103" lon="0.76774">
        <ele>165</ele>
        <time>2007-03-27T15:43:12Z</time>
      </trkpt>
      <trkpt lat="44.53129" lon="0.76786">
        <ele>168</ele>
        <time>2007-03-27T15:43:12Z</time>
      </trkpt>
      <trkpt lat="44.53222" lon="0.76836">
        <ele>179</ele>
        <time>2007-03-27T15:43:12Z</time>
      </trkpt>
      <trkpt lat="44.53234" lon="0.7683">
        <ele>180</ele>
        <time>2009-01-04T18:51:07Z</time>
      </trkpt>
      <trkpt lat="44.53269" lon="0.76846">
        <ele>181</ele>
        <time>2009-01-04T18:51:07Z</time>
      </trkpt>
      <trkpt lat="44.53275" lon="0.76852">
        <ele>181</ele>
        <time>2009-01-04T18:51:07Z</time>
      </trkpt>
      <trkpt lat="44.53297" lon="0.76857">
        <ele>180</ele>
        <time>2009-01-04T18:51:07Z</time>
      </trkpt>
      <trkpt lat="44.53305" lon="0.76863">
        <ele>180</ele>
        <time>2007-03-27T15:43:12Z</time>
      </trkpt>
      <trkpt lat="44.53321" lon="0.76874">
        <ele>179</ele>
        <time>2007-03-27T15:43:12Z</time>
      </trkpt>
      <trkpt lat="44.53343" lon="0.76887">
        <ele>176</ele>
        <time>2007-03-27T15:43:12Z</time>
      </trkpt>
      <trkpt lat="44.5336" lon="0.76898">
        <ele>172</ele>
        <time>2007-03-27T15:43:12Z</time>
      </trkpt>
      <trkpt lat="44.53335" lon="0.76911">
        <ele>171</ele>
        <time>2009-01-04T18:51:07Z</time>
      </trkpt>
      <trkpt lat="44.53355" lon="0.76914">
        <ele>169</ele>
        <time>2009-01-04T18:51:07Z</time>
      </trkpt>
      <trkpt lat="44.5337" lon="0.7692">
        <ele>167</ele>
        <time>2009-01-04T18:51:07Z</time>
      </trkpt>
      <trkpt lat="44.53385" lon="0.76929">
        <ele>162</ele>
        <time>2009-01-04T18:51:07Z</time>
      </trkpt>
      <trkpt lat="44.53383" lon="0.76939">
        <ele>161</ele>
        <time>2009-01-04T18:51:07Z</time>
      </trkpt>
      <trkpt lat="44.53374" lon="0.76948">
        <ele>160</ele>
        <time>2009-01-04T18:51:07Z</time>
      </trkpt>
      <trkpt lat="44.53377" lon="0.76958">
        <ele>158</ele>
        <time>2009-01-04T18:51:07Z</time>
      </trkpt>
      <trkpt lat="44.534" lon="0.7696">
        <ele>155</ele>
        <time>2007-03-27T15:43:12Z</time>
      </trkpt>
      <trkpt lat="44.53388" lon="0.76982">
        <ele>153</ele>
        <time>2007-03-27T15:43:12Z</time>
      </trkpt>
      <trkpt lat="44.53366" lon="0.77006">
        <ele>152</ele>
        <time>2007-03-27T15:43:12Z</time>
      </trkpt>
      <trkpt lat="44.5336" lon="0.77021">
        <ele>149</ele>
        <time>2007-03-27T15:43:12Z</time>
      </trkpt>
      <trkpt lat="44.53393" lon="0.77052">
        <ele>146</ele>
        <time>2007-03-27T15:43:12Z</time>
      </trkpt>
      <trkpt lat="44.53448" lon="0.77109">
        <ele>141</ele>
        <time>2007-03-27T15:43:12Z</time>
      </trkpt>
      <trkpt lat="44.53482" lon="0.77144">
        <ele>135</ele>
        <time>2007-03-27T15:43:12Z</time>
      </trkpt>
      <trkpt lat="44.53502" lon="0.77179">
        <ele>132</ele>
        <time>2007-03-27T15:43:12Z</time>
      </trkpt>
      <trkpt lat="44.53558" lon="0.77285">
        <ele>126</ele>
        <time>2007-03-27T15:43:12Z</time>
      </trkpt>
      <trkpt lat="44.53584" lon="0.77268">
        <ele>126</ele>
        <time>2007-03-27T15:43:12Z</time>
      </trkpt>
      <trkpt lat="44.53598" lon="0.77262">
        <ele>125</ele>
        <time>2007-03-27T15:43:12Z</time>
      </trkpt>
      <trkpt lat="44.5379" lon="0.77201">
        <ele>119</ele>
        <time>2007-03-27T15:43:12Z</time>
      </trkpt>
      <trkpt lat="44.53901" lon="0.77156">
        <ele>116</ele>
        <time>2007-03-27T15:43:12Z</time>
      </trkpt>
      <trkpt lat="44.53927" lon="0.77153">
        <ele>115</ele>
        <time>2007-03-27T15:43:12Z</time>
      </trkpt>
      <trkpt lat="44.53979" lon="0.77163">
        <ele>114</ele>
        <time>2007-03-27T15:43:12Z</time>
      </trkpt>
      <trkpt lat="44.54031" lon="0.77177">
        <ele>112</ele>
        <time>2007-03-27T15:43:12Z</time>
      </trkpt>
      <trkpt lat="44.54084" lon="0.77201">
        <ele>109</ele>
        <time>2007-03-27T15:43:12Z</time>
      </trkpt>
      <trkpt lat="44.54113" lon="0.77216">
        <ele>106</ele>
        <time>2007-03-27T15:43:12Z</time>
      </trkpt>
      <trkpt lat="44.54134" lon="0.7722">
        <ele>103</ele>
        <time>2007-03-27T15:43:12Z</time>
      </trkpt>
      <trkpt lat="44.54163" lon="0.77216">
        <ele>101</ele>
        <time>2007-03-27T15:43:12Z</time>
      </trkpt>
      <trkpt lat="44.54201" lon="0.77202">
        <ele>100</ele>
        <time>2007-03-27T15:43:12Z</time>
      </trkpt>
      <trkpt lat="44.54228" lon="0.77202">
        <ele>99</ele>
        <time>2007-03-27T15:43:12Z</time>
      </trkpt>
      <trkpt lat="44.54251" lon="0.77214">
        <ele>96</ele>
        <time>2007-03-27T15:43:12Z</time>
      </trkpt>
      <trkpt lat="44.54274" lon="0.77224">
        <ele>94</ele>
        <time>2007-03-27T15:43:12Z</time>
      </trkpt>
      <trkpt lat="44.54303" lon="0.77212">
        <ele>92</ele>
        <time>2007-03-27T15:43:12Z</time>
      </trkpt>
      <trkpt lat="44.54334" lon="0.77208">
        <ele>91</ele>
        <time>2007-03-27T15:43:12Z</time>
      </trkpt>
      <trkpt lat="44.54397" lon="0.77194">
        <ele>90</ele>
        <time>2007-03-27T15:43:12Z</time>
      </trkpt>
      <trkpt lat="44.5442" lon="0.77185">
        <ele>90</ele>
        <time>2007-03-27T15:43:12Z</time>
      </trkpt>
      <trkpt lat="44.54472" lon="0.77163">
        <ele>90</ele>
        <time>2007-03-27T15:43:12Z</time>
      </trkpt>
      <trkpt lat="44.545" lon="0.77152">
        <ele>90</ele>
        <time>2007-03-27T15:43:12Z</time>
      </trkpt>
      <trkpt lat="44.54542" lon="0.77135">
        <ele>88</ele>
        <time>2007-03-27T15:43:12Z</time>
      </trkpt>
      <trkpt lat="44.54566" lon="0.77118">
        <ele>85</ele>
        <time>2007-03-27T15:43:12Z</time>
      </trkpt>
      <trkpt lat="44.54583" lon="0.77102">
        <ele>83</ele>
        <time>2007-03-27T15:43:12Z</time>
      </trkpt>
      <trkpt lat="44.54631" lon="0.7705">
        <ele>79</ele>
        <time>2007-03-27T15:43:12Z</time>
      </trkpt>
      <trkpt lat="44.54672" lon="0.77002">
        <ele>79</ele>
        <time>2007-03-27T15:43:12Z</time>
      </trkpt>
      <trkpt lat="44.54712" lon="0.76973">
        <ele>80</ele>
        <time>2007-03-27T15:43:12Z</time>
      </trkpt>
      <trkpt lat="44.54707" lon="0.76956">
        <ele>79</ele>
        <time>2007-03-27T15:43:12Z</time>
      </trkpt>
      <trkpt lat="44.54715" lon="0.76946">
        <ele>79</ele>
        <time>2007-03-27T15:43:12Z</time>
      </trkpt>
      <trkpt lat="44.54711" lon="0.76885">
        <ele>79</ele>
        <time>2007-03-27T15:43:12Z</time>
      </trkpt>
      <trkpt lat="44.54746" lon="0.76885">
        <ele>81</ele>
        <time>2007-03-27T15:43:12Z</time>
      </trkpt>
      <trkpt lat="44.54758" lon="0.76874">
        <ele>82</ele>
        <time>2007-03-27T15:43:12Z</time>
      </trkpt>
      <trkpt lat="44.54764" lon="0.76817">
        <ele>85</ele>
        <time>2007-03-27T15:43:12Z</time>
      </trkpt>
      <trkpt lat="44.54769" lon="0.76701">
        <ele>91</ele>
        <time>2007-03-27T15:43:12Z</time>
      </trkpt>
      <trkpt lat="44.54809" lon="0.76673">
        <ele>93</ele>
        <time>2007-03-27T15:43:12Z</time>
      </trkpt>
      <trkpt lat="44.54837" lon="0.76659">
        <ele>93</ele>
        <time>2007-03-27T15:43:12Z</time>
      </trkpt>
      <trkpt lat="44.54849" lon="0.76645">
        <ele>95</ele>
        <time>2007-03-27T15:43:12Z</time>
      </trkpt>
      <trkpt lat="44.54848" lon="0.76568">
        <ele>104</ele>
        <time>2007-03-27T15:43:12Z</time>
      </trkpt>
      <trkpt lat="44.54832" lon="0.76528">
        <ele>104</ele>
        <time>2007-03-27T15:43:12Z</time>
      </trkpt>
      <trkpt lat="44.54814" lon="0.76495">
        <ele>101</ele>
        <time>2007-03-27T15:43:12Z</time>
      </trkpt>
      <trkpt lat="44.548" lon="0.76459">
        <ele>98</ele>
        <time>2007-03-27T15:43:12Z</time>
      </trkpt>
      <trkpt lat="44.54785" lon="0.76417">
        <ele>94</ele>
        <time>2007-03-27T15:43:12Z</time>
      </trkpt>
      <trkpt lat="44.54789" lon="0.76403">
        <ele>94</ele>
        <time>2007-03-27T15:43:12Z</time>
      </trkpt>
      <trkpt lat="44.54841" lon="0.76342">
        <ele>96</ele>
        <time>2007-03-27T15:43:12Z</time>
      </trkpt>
      <trkpt lat="44.54828" lon="0.76282">
        <ele>88</ele>
        <time>2007-03-27T15:43:12Z</time>
      </trkpt>
      <trkpt lat="44.54806" lon="0.76228">
        <ele>84</ele>
        <time>2007-03-27T15:43:12Z</time>
      </trkpt>
      <trkpt lat="44.54789" lon="0.76199">
        <ele>82</ele>
        <time>2007-03-27T15:43:12Z</time>
      </trkpt>
      <trkpt lat="44.5477" lon="0.76177">
        <ele>80</ele>
        <time>2007-03-27T15:43:12Z</time>
      </trkpt>
      <trkpt lat="44.5476" lon="0.76163">
        <ele>79</ele>
        <time>2007-03-27T15:43:12Z</time>
      </trkpt>
      <trkpt lat="44.54753" lon="0.76151">
        <ele>79</ele>
        <time>2007-03-27T15:43:12Z</time>
      </trkpt>
      <trkpt lat="44.54752" lon="0.76134">
        <ele>79</ele>
        <time>2007-03-27T15:43:12Z</time>
      </trkpt>
      <trkpt lat="44.54754" lon="0.76105">
        <ele>78</ele>
        <time>2007-03-27T15:43:12Z</time>
      </trkpt>
      <trkpt lat="44.54763" lon="0.7607">
        <ele>78</ele>
        <time>2007-03-27T15:43:12Z</time>
      </trkpt>
      <trkpt lat="44.54767" lon="0.76025">
        <ele>78</ele>
        <time>2007-03-27T15:43:12Z</time>
      </trkpt>
      <trkpt lat="44.54764" lon="0.75868">
        <ele>80</ele>
        <time>2007-03-27T15:43:12Z</time>
      </trkpt>
      <trkpt lat="44.54764" lon="0.75844">
        <ele>80</ele>
        <time>2007-03-27T15:43:12Z</time>
      </trkpt>
      <trkpt lat="44.54775" lon="0.75811">
        <ele>82</ele>
        <time>2007-03-27T15:43:12Z</time>
      </trkpt>
      <trkpt lat="44.54785" lon="0.75791">
        <ele>83</ele>
        <time>2007-03-27T15:43:12Z</time>
      </trkpt>
      <trkpt lat="44.54799" lon="0.75778">
        <ele>85</ele>
        <time>2007-03-27T15:43:12Z</time>
      </trkpt>
      <trkpt lat="44.54823" lon="0.75765">
        <ele>86</ele>
        <time>2007-03-27T15:43:12Z</time>
      </trkpt>
      <trkpt lat="44.54859" lon="0.75756">
        <ele>87</ele>
        <time>2007-03-27T15:43:12Z</time>
      </trkpt>
      <trkpt lat="44.54879" lon="0.75746">
        <ele>87</ele>
        <time>2007-03-27T15:43:12Z</time>
      </trkpt>
      <trkpt lat="44.54895" lon="0.75729">
        <ele>88</ele>
        <time>2007-03-27T15:43:12Z</time>
      </trkpt>
      <trkpt lat="44.5491" lon="0.75697">
        <ele>91</ele>
        <time>2007-03-27T15:43:12Z</time>
      </trkpt>
      <trkpt lat="44.54924" lon="0.75666">
        <ele>94</ele>
        <time>2007-03-27T15:43:12Z</time>
      </trkpt>
      <trkpt lat="44.54945" lon="0.75642">
        <ele>98</ele>
        <time>2007-03-27T15:43:12Z</time>
      </trkpt>
      <trkpt lat="44.55007" lon="0.75595">
        <ele>104</ele>
        <time>2007-03-27T15:43:12Z</time>
      </trkpt>
      <trkpt lat="44.55047" lon="0.75559">
        <ele>107</ele>
        <time>2007-03-27T15:43:12Z</time>
      </trkpt>
      <trkpt lat="44.55093" lon="0.75534">
        <ele>110</ele>
        <time>2007-03-27T15:43:12Z</time>
      </trkpt>
      <trkpt lat="44.55115" lon="0.7551">
        <ele>115</ele>
        <time>2007-03-27T15:43:12Z</time>
      </trkpt>
      <trkpt lat="44.55135" lon="0.75478">
        <ele>121</ele>
        <time>2007-03-27T15:43:12Z</time>
      </trkpt>
      <trkpt lat="44.5515" lon="0.75453">
        <ele>123</ele>
        <time>2007-03-27T15:43:12Z</time>
      </trkpt>
      <trkpt lat="44.55199" lon="0.75418">
        <ele>127</ele>
        <time>2007-03-27T15:43:12Z</time>
      </trkpt>
      <trkpt lat="44.5525" lon="0.75379">
        <ele>128</ele>
        <time>2007-03-27T15:43:12Z</time>
      </trkpt>
      <trkpt lat="44.55303" lon="0.75354">
        <ele>127</ele>
        <time>2007-03-27T15:43:12Z</time>
      </trkpt>
      <trkpt lat="44.55351" lon="0.75332">
        <ele>126</ele>
        <time>2007-03-27T15:43:12Z</time>
      </trkpt>
      <trkpt lat="44.55397" lon="0.75299">
        <ele>126</ele>
        <time>2007-03-27T15:43:12Z</time>
      </trkpt>
      <trkpt lat="44.55444" lon="0.75254">
        <ele>128</ele>
        <time>2007-03-27T15:43:12Z</time>
      </trkpt>
      <trkpt lat="44.55469" lon="0.75216">
        <ele>129</ele>
        <time>2007-03-27T15:43:12Z</time>
      </trkpt>
      <trkpt lat="44.55489" lon="0.75188">
        <ele>130</ele>
        <time>2007-03-27T15:43:12Z</time>
      </trkpt>
      <trkpt lat="44.55506" lon="0.75136">
        <ele>132</ele>
        <time>2007-03-27T15:43:12Z</time>
      </trkpt>
      <trkpt lat="44.55528" lon="0.75091">
        <ele>132</ele>
        <time>2007-03-27T15:43:12Z</time>
      </trkpt>
      <trkpt lat="44.55557" lon="0.75024">
        <ele>130</ele>
        <time>2007-03-27T15:43:12Z</time>
      </trkpt>
      <trkpt lat="44.55578" lon="0.74984">
        <ele>128</ele>
        <time>2007-03-27T15:43:12Z</time>
      </trkpt>
      <trkpt lat="44.55605" lon="0.7494">
        <ele>124</ele>
        <time>2007-03-27T15:43:12Z</time>
      </trkpt>
      <trkpt lat="44.55638" lon="0.74884">
        <ele>119</ele>
        <time>2007-03-27T15:43:12Z</time>
      </trkpt>
      <trkpt lat="44.55653" lon="0.74841">
        <ele>118</ele>
        <time>2007-03-27T15:43:12Z</time>
      </trkpt>
      <trkpt lat="44.55656" lon="0.748">
        <ele>115</ele>
        <time>2007-03-27T15:43:12Z</time>
      </trkpt>
      <trkpt lat="44.5566" lon="0.7477">
        <ele>112</ele>
        <time>2007-03-27T15:43:12Z</time>
      </trkpt>
      <trkpt lat="44.55668" lon="0.74738">
        <ele>110</ele>
        <time>2007-03-27T15:43:12Z</time>
      </trkpt>
      <trkpt lat="44.55682" lon="0.74702">
        <ele>108</ele>
        <time>2007-03-27T15:43:12Z</time>
      </trkpt>
      <trkpt lat="44.55699" lon="0.74665">
        <ele>107</ele>
        <time>2007-03-27T15:43:12Z</time>
      </trkpt>
      <trkpt lat="44.55765" lon="0.7452">
        <ele>119</ele>
        <time>2007-03-27T15:43:12Z</time>
      </trkpt>
      <trkpt lat="44.55812" lon="0.74432">
        <ele>124</ele>
        <time>2007-03-27T15:43:12Z</time>
      </trkpt>
      <trkpt lat="44.5585" lon="0.74392">
        <ele>129</ele>
        <time>2007-03-27T15:43:12Z</time>
      </trkpt>
      <trkpt lat="44.55892" lon="0.7435">
        <ele>132</ele>
        <time>2007-03-27T15:43:12Z</time>
      </trkpt>
      <trkpt lat="44.55923" lon="0.74319">
        <ele>133</ele>
        <time>2007-03-27T15:43:12Z</time>
      </trkpt>
      <trkpt lat="44.55944" lon="0.74293">
        <ele>134</ele>
        <time>2007-03-27T15:43:12Z</time>
      </trkpt>
      <trkpt lat="44.55967" lon="0.74259">
        <ele>136</ele>
        <time>2007-03-27T15:43:12Z</time>
      </trkpt>
      <trkpt lat="44.55988" lon="0.74238">
        <ele>137</ele>
        <time>2007-03-27T15:43:12Z</time>
      </trkpt>
      <trkpt lat="44.55999" lon="0.74232">
        <ele>137</ele>
        <time>2007-03-27T15:43:12Z</time>
      </trkpt>
      <trkpt lat="44.56053" lon="0.74224">
        <ele>139</ele>
        <time>2007-03-27T15:43:12Z</time>
      </trkpt>
      <trkpt lat="44.5613" lon="0.74173">
        <ele>140</ele>
        <time>2007-03-27T15:43:12Z</time>
      </trkpt>
      <trkpt lat="44.56159" lon="0.74149">
        <ele>141</ele>
        <time>2007-03-27T15:43:12Z</time>
      </trkpt>
      <trkpt lat="44.56268" lon="0.7405">
        <ele>139</ele>
        <time>2007-03-27T15:43:12Z</time>
      </trkpt>
      <trkpt lat="44.56308" lon="0.74009">
        <ele>140</ele>
        <time>2007-03-27T15:43:12Z</time>
      </trkpt>
      <trkpt lat="44.56323" lon="0.7399">
        <ele>140</ele>
        <time>2007-03-27T15:43:12Z</time>
      </trkpt>
      <trkpt lat="44.56342" lon="0.73955">
        <ele>141</ele>
        <time>2007-03-27T15:43:12Z</time>
      </trkpt>
      <trkpt lat="44.56356" lon="0.7392">
        <ele>140</ele>
        <time>2007-03-27T15:43:12Z</time>
      </trkpt>
      <trkpt lat="44.56372" lon="0.73877">
        <ele>138</ele>
        <time>2007-03-27T15:43:12Z</time>
      </trkpt>
      <trkpt lat="44.56389" lon="0.73846">
        <ele>136</ele>
        <time>2007-03-27T15:43:12Z</time>
      </trkpt>
      <trkpt lat="44.56413" lon="0.73814">
        <ele>134</ele>
        <time>2007-03-27T15:43:12Z</time>
      </trkpt>
      <trkpt lat="44.5643" lon="0.73779">
        <ele>132</ele>
        <time>2007-03-27T15:43:12Z</time>
      </trkpt>
      <trkpt lat="44.56497" lon="0.73614">
        <ele>125</ele>
        <time>2007-03-27T15:43:12Z</time>
      </trkpt>
      <trkpt lat="44.56516" lon="0.73577">
        <ele>124</ele>
        <time>2007-03-27T15:43:12Z</time>
      </trkpt>
      <trkpt lat="44.5654" lon="0.73521">
        <ele>121</ele>
        <time>2007-03-27T15:43:12Z</time>
      </trkpt>
      <trkpt lat="44.56564" lon="0.73458">
        <ele>114</ele>
        <time>2007-03-27T15:43:12Z</time>
      </trkpt>
      <trkpt lat="44.56573" lon="0.73428">
        <ele>112</ele>
        <time>2007-03-27T15:43:12Z</time>
      </trkpt>
      <trkpt lat="44.56594" lon="0.73359">
        <ele>114</ele>
        <time>2007-03-27T15:43:12Z</time>
      </trkpt>
      <trkpt lat="44.56619" lon="0.73291">
        <ele>121</ele>
        <time>2007-03-27T15:43:12Z</time>
      </trkpt>
      <trkpt lat="44.56615" lon="0.73272">
        <ele>122</ele>
        <time>2007-03-27T15:43:12Z</time>
      </trkpt>
      <trkpt lat="44.56621" lon="0.73252">
        <ele>123</ele>
        <time>2007-03-27T15:43:12Z</time>
      </trkpt>
      <trkpt lat="44.56644" lon="0.7319">
        <ele>126</ele>
        <time>2007-03-27T15:43:12Z</time>
      </trkpt>
      <trkpt lat="44.56628" lon="0.73165">
        <ele>125</ele>
        <time>2007-03-27T15:43:12Z</time>
      </trkpt>
      <trkpt lat="44.56611" lon="0.73135">
        <ele>124</ele>
        <time>2007-03-27T15:43:12Z</time>
      </trkpt>
      <trkpt lat="44.56602" lon="0.73118">
        <ele>122</ele>
        <time>2007-03-27T15:43:12Z</time>
      </trkpt>
      <trkpt lat="44.56588" lon="0.73109">
        <ele>121</ele>
        <time>2007-03-27T15:43:12Z</time>
      </trkpt>
      <trkpt lat="44.56573" lon="0.73113">
        <ele>120</ele>
        <time>2007-03-27T15:43:12Z</time>
      </trkpt>
      <trkpt lat="44.5628" lon="0.73271">
        <ele>114</ele>
        <time>2007-03-27T15:43:12Z</time>
      </trkpt>
      <trkpt lat="44.56263" lon="0.73276">
        <ele>114</ele>
        <time>2007-03-27T15:43:12Z</time>
      </trkpt>
      <trkpt lat="44.56246" lon="0.73275">
        <ele>115</ele>
        <time>2007-03-27T15:43:12Z</time>
      </trkpt>
      <trkpt lat="44.56221" lon="0.73266">
        <ele>116</ele>
        <time>2007-03-27T15:43:12Z</time>
      </trkpt>
      <trkpt lat="44.56167" lon="0.73235">
        <ele>115</ele>
        <time>2007-03-27T15:43:12Z</time>
      </trkpt>
      <trkpt lat="44.56133" lon="0.73215">
        <ele>114</ele>
        <time>2007-03-27T15:43:12Z</time>
      </trkpt>
      <trkpt lat="44.56102" lon="0.73205">
        <ele>114</ele>
        <time>2007-03-27T15:43:12Z</time>
      </trkpt>
      <trkpt lat="44.56082" lon="0.73185">
        <ele>115</ele>
        <time>2007-03-27T15:43:12Z</time>
      </trkpt>
      <trkpt lat="44.56039" lon="0.73142">
        <ele>119</ele>
        <time>2007-03-27T15:43:12Z</time>
      </trkpt>
      <trkpt lat="44.55988" lon="0.73082">
        <ele>121</ele>
        <time>2007-03-27T15:43:12Z</time>
      </trkpt>
      <trkpt lat="44.55928" lon="0.7301">
        <ele>122</ele>
        <time>2007-03-27T15:43:12Z</time>
      </trkpt>
      <trkpt lat="44.55876" lon="0.72952">
        <ele>120</ele>
        <time>2007-03-27T15:43:12Z</time>
      </trkpt>
      <trkpt lat="44.55851" lon="0.72898">
        <ele>119</ele>
        <time>2007-03-27T15:43:12Z</time>
      </trkpt>
      <trkpt lat="44.55793" lon="0.72778">
        <ele>121</ele>
        <time>2007-03-27T15:43:12Z</time>
      </trkpt>
      <trkpt lat="44.55785" lon="0.72772">
        <ele>122</ele>
        <time>2007-03-27T15:43:12Z</time>
      </trkpt>
      <trkpt lat="44.55845" lon="0.72653">
        <ele>124</ele>
        <time>2007-03-27T15:43:12Z</time>
      </trkpt>
      <trkpt lat="44.55865" lon="0.7263">
        <ele>124</ele>
        <time>2007-03-27T15:43:12Z</time>
      </trkpt>
      <trkpt lat="44.55901" lon="0.72599">
        <ele>126</ele>
        <time>2007-03-27T15:43:12Z</time>
      </trkpt>
      <trkpt lat="44.55921" lon="0.72584">
        <ele>126</ele>
        <time>2007-03-27T15:43:12Z</time>
      </trkpt>
      <trkpt lat="44.55966" lon="0.72555">
        <ele>127</ele>
        <time>2007-03-27T15:43:12Z</time>
      </trkpt>
      <trkpt lat="44.55998" lon="0.72541">
        <ele>129</ele>
        <time>2007-03-27T15:43:12Z</time>
      </trkpt>
      <trkpt lat="44.56015" lon="0.72528">
        <ele>129</ele>
        <time>2007-03-27T15:43:12Z</time>
      </trkpt>
      <trkpt lat="44.56056" lon="0.72488">
        <ele>131</ele>
        <time>2007-03-27T15:43:12Z</time>
      </trkpt>
      <trkpt lat="44.56118" lon="0.72458">
        <ele>135</ele>
        <time>2007-03-27T15:43:12Z</time>
      </trkpt>
      <trkpt lat="44.56161" lon="0.7243">
        <ele>138</ele>
        <time>2007-03-27T15:43:12Z</time>
      </trkpt>
      <trkpt lat="44.56179" lon="0.72416">
        <ele>139</ele>
        <time>2007-03-27T15:43:12Z</time>
      </trkpt>
      <trkpt lat="44.56205" lon="0.72389">
        <ele>140</ele>
        <time>2007-03-27T15:43:12Z</time>
      </trkpt>
      <trkpt lat="44.56408" lon="0.72279">
        <ele>159</ele>
        <time>2007-03-27T15:43:12Z</time>
      </trkpt>
      <trkpt lat="44.56384" lon="0.7226">
        <ele>157</ele>
        <time>2007-03-27T15:43:12Z</time>
      </trkpt>
      <trkpt lat="44.56368" lon="0.72244">
        <ele>156</ele>
        <time>2007-03-27T15:43:12Z</time>
      </trkpt>
      <trkpt lat="44.56339" lon="0.72209">
        <ele>154</ele>
        <time>2007-03-27T15:43:12Z</time>
      </trkpt>
      <trkpt lat="44.56319" lon="0.72195">
        <ele>153</ele>
        <time>2007-03-27T15:43:12Z</time>
      </trkpt>
      <trkpt lat="44.56285" lon="0.7217">
        <ele>152</ele>
        <time>2007-03-27T15:43:12Z</time>
      </trkpt>
      <trkpt lat="44.56253" lon="0.72136">
        <ele>151</ele>
        <time>2007-03-27T15:43:12Z</time>
      </trkpt>
      <trkpt lat="44.5622" lon="0.7211">
        <ele>151</ele>
        <time>2007-03-27T15:43:12Z</time>
      </trkpt>
      <trkpt lat="44.56156" lon="0.72055">
        <ele>149</ele>
        <time>2007-03-27T15:43:12Z</time>
      </trkpt>
      <trkpt lat="44.56135" lon="0.72032">
        <ele>149</ele>
        <time>2007-03-27T15:43:12Z</time>
      </trkpt>
      <trkpt lat="44.56117" lon="0.71997">
        <ele>150</ele>
        <time>2007-03-27T15:43:12Z</time>
      </trkpt>
      <trkpt lat="44.561" lon="0.71967">
        <ele>150</ele>
        <time>2007-03-27T15:43:12Z</time>
      </trkpt>
      <trkpt lat="44.56077" lon="0.71937">
        <ele>149</ele>
        <time>2007-03-27T15:43:12Z</time>
      </trkpt>
      <trkpt lat="44.56046" lon="0.71903">
        <ele>150</ele>
        <time>2007-03-27T15:43:12Z</time>
      </trkpt>
      <trkpt lat="44.56015" lon="0.71861">
        <ele>150</ele>
        <time>2007-03-27T15:43:12Z</time>
      </trkpt>
      <trkpt lat="44.5596" lon="0.71765">
        <ele>146</ele>
        <time>2007-03-27T15:43:12Z</time>
      </trkpt>
      <trkpt lat="44.55942" lon="0.71747">
        <ele>144</ele>
        <time>2007-03-27T15:43:12Z</time>
      </trkpt>
      <trkpt lat="44.55905" lon="0.71723">
        <ele>142</ele>
        <time>2007-03-27T15:43:12Z</time>
      </trkpt>
      <trkpt lat="44.55882" lon="0.71719">
        <ele>141</ele>
        <time>2007-03-27T15:43:12Z</time>
      </trkpt>
      <trkpt lat="44.55814" lon="0.71715">
        <ele>140</ele>
        <time>2007-03-27T15:43:12Z</time>
      </trkpt>
      <trkpt lat="44.55787" lon="0.71715">
        <ele>141</ele>
        <time>2007-03-27T15:43:12Z</time>
      </trkpt>
      <trkpt lat="44.55749" lon="0.71707">
        <ele>142</ele>
        <time>2007-03-27T15:43:12Z</time>
      </trkpt>
      <trkpt lat="44.55722" lon="0.7173">
        <ele>143</ele>
        <time>2007-03-27T15:43:12Z</time>
      </trkpt>
      <trkpt lat="44.55686" lon="0.71756">
        <ele>143</ele>
        <time>2007-03-27T15:43:12Z</time>
      </trkpt>
      <trkpt lat="44.55652" lon="0.71779">
        <ele>144</ele>
        <time>2007-03-27T15:43:12Z</time>
      </trkpt>
      <trkpt lat="44.55601" lon="0.71812">
        <ele>145</ele>
        <time>2007-03-27T15:43:12Z</time>
      </trkpt>
      <trkpt lat="44.55583" lon="0.71827">
        <ele>145</ele>
        <time>2007-03-27T15:43:12Z</time>
      </trkpt>
      <trkpt lat="44.55564" lon="0.71843">
        <ele>145</ele>
        <time>2007-03-27T15:43:12Z</time>
      </trkpt>
      <trkpt lat="44.55541" lon="0.71873">
        <ele>146</ele>
        <time>2007-03-27T15:43:12Z</time>
      </trkpt>
      <trkpt lat="44.55483" lon="0.71954">
        <ele>148</ele>
        <time>2007-03-27T15:43:12Z</time>
      </trkpt>
      <trkpt lat="44.5544" lon="0.71971">
        <ele>149</ele>
        <time>2007-03-27T15:43:12Z</time>
      </trkpt>
      <trkpt lat="44.55409" lon="0.71992">
        <ele>150</ele>
        <time>2007-03-27T15:43:12Z</time>
      </trkpt>
      <trkpt lat="44.55379" lon="0.72015">
        <ele>149</ele>
        <time>2007-03-27T15:43:12Z</time>
      </trkpt>
      <trkpt lat="44.55334" lon="0.7204">
        <ele>147</ele>
        <time>2007-03-27T15:43:12Z</time>
      </trkpt>
      <trkpt lat="44.55245" lon="0.72093">
        <ele>145</ele>
        <time>2007-03-27T15:43:12Z</time>
      </trkpt>
      <trkpt lat="44.55209" lon="0.72102">
        <ele>143</ele>
        <time>2007-03-27T15:43:12Z</time>
      </trkpt>
      <trkpt lat="44.55175" lon="0.72114">
        <ele>142</ele>
        <time>2007-03-27T15:43:12Z</time>
      </trkpt>
      <trkpt lat="44.55132" lon="0.7213">
        <ele>141</ele>
        <time>2007-03-27T15:43:12Z</time>
      </trkpt>
      <trkpt lat="44.55086" lon="0.72152">
        <ele>141</ele>
        <time>2007-03-27T15:43:12Z</time>
      </trkpt>
      <trkpt lat="44.55031" lon="0.72195">
        <ele>141</ele>
        <time>2007-03-27T15:43:12Z</time>
      </trkpt>
      <trkpt lat="44.54998" lon="0.72221">
        <ele>140</ele>
        <time>2007-03-27T15:43:12Z</time>
      </trkpt>
      <trkpt lat="44.54937" lon="0.72278">
        <ele>140</ele>
        <time>2007-03-27T15:43:12Z</time>
      </trkpt>
      <trkpt lat="44.54906" lon="0.72305">
        <ele>140</ele>
        <time>2007-03-27T15:43:12Z</time>
      </trkpt>
      <trkpt lat="44.54863" lon="0.72336">
        <ele>141</ele>
        <time>2007-03-27T15:43:12Z</time>
      </trkpt>
      <trkpt lat="44.54824" lon="0.72393">
        <ele>140</ele>
        <time>2009-01-04T18:51:07Z</time>
      </trkpt>
      <trkpt lat="44.54784" lon="0.72453">
        <ele>141</ele>
        <time>2009-01-04T18:51:07Z</time>
      </trkpt>
      <trkpt lat="44.54765" lon="0.72493">
        <ele>139</ele>
        <time>2007-03-27T15:43:12Z</time>
      </trkpt>
      <trkpt lat="44.54727" lon="0.72444">
        <ele>144</ele>
        <time>2007-03-27T15:43:12Z</time>
      </trkpt>
      <trkpt lat="44.54667" lon="0.72494">
        <ele>145</ele>
        <time>2007-03-27T15:43:12Z</time>
      </trkpt>
      <trkpt lat="44.54627" lon="0.72524">
        <ele>146</ele>
        <time>2007-03-27T15:43:12Z</time>
      </trkpt>
      <trkpt lat="44.54579" lon="0.72563">
        <ele>146</ele>
        <time>2007-03-27T15:43:12Z</time>
      </trkpt>
      <trkpt lat="44.54541" lon="0.72594">
        <ele>146</ele>
        <time>2007-03-27T15:43:12Z</time>
      </trkpt>
      <trkpt lat="44.54506" lon="0.72626">
        <ele>146</ele>
        <time>2007-03-27T15:43:12Z</time>
      </trkpt>
      <trkpt lat="44.54481" lon="0.72635">
        <ele>145</ele>
        <time>2007-03-27T15:43:12Z</time>
      </trkpt>
      <trkpt lat="44.54428" lon="0.72652">
        <ele>144</ele>
        <time>2007-03-27T15:43:12Z</time>
      </trkpt>
      <trkpt lat="44.54376" lon="0.72682">
        <ele>142</ele>
        <time>2007-03-27T15:43:12Z</time>
      </trkpt>
      <trkpt lat="44.54339" lon="0.72704">
        <ele>141</ele>
        <time>2007-03-27T15:43:12Z</time>
      </trkpt>
      <trkpt lat="44.54267" lon="0.72759">
        <ele>137</ele>
        <time>2007-03-27T15:43:12Z</time>
      </trkpt>
      <trkpt lat="44.54214" lon="0.72805">
        <ele>135</ele>
        <time>2007-03-27T15:43:12Z</time>
      </trkpt>
      <trkpt lat="44.54179" lon="0.72824">
        <ele>135</ele>
        <time>2007-03-27T15:43:12Z</time>
      </trkpt>
      <trkpt lat="44.54156" lon="0.7283">
        <ele>136</ele>
        <time>2007-03-27T15:43:12Z</time>
      </trkpt>
      <trkpt lat="44.54133" lon="0.72827">
        <ele>138</ele>
        <time>2007-03-27T15:43:12Z</time>
      </trkpt>
      <trkpt lat="44.54085" lon="0.72829">
        <ele>139</ele>
        <time>2007-03-27T15:43:12Z</time>
      </trkpt>
      <trkpt lat="44.5405" lon="0.72842">
        <ele>141</ele>
        <time>2007-03-27T15:43:12Z</time>
      </trkpt>
      <trkpt lat="44.54034" lon="0.72797">
        <ele>142</ele>
        <time>2007-03-27T15:43:12Z</time>
      </trkpt>
      <trkpt lat="44.54014" lon="0.72771">
        <ele>142</ele>
        <time>2007-03-27T15:43:12Z</time>
      </trkpt>
      <trkpt lat="44.53987" lon="0.72748">
        <ele>142</ele>
        <time>2007-03-27T15:43:12Z</time>
      </trkpt>
      <trkpt lat="44.53856" lon="0.72651">
        <ele>139</ele>
        <time>2007-03-27T15:43:12Z</time>
      </trkpt>
      <trkpt lat="44.53878" lon="0.72549">
        <ele>135</ele>
        <time>2007-03-27T15:43:12Z</time>
      </trkpt>
      <trkpt lat="44.53894" lon="0.72477">
        <ele>133</ele>
        <time>2007-03-27T15:43:12Z</time>
      </trkpt>
      <trkpt lat="44.53898" lon="0.7244">
        <ele>132</ele>
        <time>2007-03-27T15:43:12Z</time>
      </trkpt>
      <trkpt lat="44.53675" lon="0.72391">
        <ele>121</ele>
        <time>2007-03-27T15:43:12Z</time>
      </trkpt>
      <trkpt lat="44.53656" lon="0.7245">
        <ele>119</ele>
        <time>2007-03-27T15:43:12Z</time>
      </trkpt>
      <trkpt lat="44.53599" lon="0.72649">
        <ele>122</ele>
        <time>2007-03-27T15:43:12Z</time>
      </trkpt>
      <trkpt lat="44.53599" lon="0.7269">
        <ele>121</ele>
        <time>2007-03-27T15:43:12Z</time>
      </trkpt>
      <trkpt lat="44.53586" lon="0.72713">
        <ele>119</ele>
        <time>2007-03-27T15:43:12Z</time>
      </trkpt>
      <trkpt lat="44.53562" lon="0.72737">
        <ele>117</ele>
        <time>2007-03-27T15:43:12Z</time>
      </trkpt>
      <trkpt lat="44.53542" lon="0.72756">
        <ele>114</ele>
        <time>2007-03-27T15:43:12Z</time>
      </trkpt>
      <trkpt lat="44.53525" lon="0.72771">
        <ele>112</ele>
        <time>2007-03-27T15:43:12Z</time>
      </trkpt>
      <trkpt lat="44.53517" lon="0.72787">
        <ele>110</ele>
        <time>2007-03-27T15:43:12Z</time>
      </trkpt>
      <trkpt lat="44.53516" lon="0.72817">
        <ele>110</ele>
        <time>2007-03-27T15:43:12Z</time>
      </trkpt>
      <trkpt lat="44.53516" lon="0.72861">
        <ele>111</ele>
        <time>2007-03-27T15:43:12Z</time>
      </trkpt>
      <trkpt lat="44.53514" lon="0.72889">
        <ele>112</ele>
        <time>2007-03-27T15:43:12Z</time>
      </trkpt>
      <trkpt lat="44.53508" lon="0.7291">
        <ele>112</ele>
        <time>2007-03-27T15:43:12Z</time>
      </trkpt>
      <trkpt lat="44.53496" lon="0.7294">
        <ele>111</ele>
        <time>2007-03-27T15:43:12Z</time>
      </trkpt>
      <trkpt lat="44.53502" lon="0.73015">
        <ele>113</ele>
        <time>2007-03-27T15:43:12Z</time>
      </trkpt>
      <trkpt lat="44.53519" lon="0.73052">
        <ele>114</ele>
        <time>2007-03-27T15:43:12Z</time>
      </trkpt>
      <trkpt lat="44.53497" lon="0.73091">
        <ele>114</ele>
        <time>2007-03-27T15:43:12Z</time>
      </trkpt>
      <trkpt lat="44.53462" lon="0.73134">
        <ele>115</ele>
        <time>2007-03-27T15:43:12Z</time>
      </trkpt>
      <trkpt lat="44.53446" lon="0.73168">
        <ele>116</ele>
        <time>2007-03-27T15:43:12Z</time>
      </trkpt>
      <trkpt lat="44.53432" lon="0.73203">
        <ele>117</ele>
        <time>2007-03-27T15:43:12Z</time>
      </trkpt>
      <trkpt lat="44.53416" lon="0.73216">
        <ele>117</ele>
        <time>2007-03-27T15:43:12Z</time>
      </trkpt>
      <trkpt lat="44.53385" lon="0.73231">
        <ele>116</ele>
        <time>2007-03-27T15:43:12Z</time>
      </trkpt>
      <trkpt lat="44.5331" lon="0.7326">
        <ele>115</ele>
        <time>2007-03-27T15:43:12Z</time>
      </trkpt>
      <trkpt lat="44.53252" lon="0.73291">
        <ele>113</ele>
        <time>2007-03-27T15:43:12Z</time>
      </trkpt>
      <trkpt lat="44.5322" lon="0.73317">
        <ele>113</ele>
        <time>2007-03-27T15:43:12Z</time>
      </trkpt>
      <trkpt lat="44.53189" lon="0.7335">
        <ele>112</ele>
        <time>2007-03-27T15:43:12Z</time>
      </trkpt>
      <trkpt lat="44.53157" lon="0.73383">
        <ele>112</ele>
        <time>2007-03-27T15:43:12Z</time>
      </trkpt>
      <trkpt lat="44.53124" lon="0.73427">
        <ele>112</ele>
        <time>2007-03-27T15:43:12Z</time>
      </trkpt>
      <trkpt lat="44.53096" lon="0.73465">
        <ele>112</ele>
        <time>2007-03-27T15:43:12Z</time>
      </trkpt>
      <trkpt lat="44.53079" lon="0.735">
        <ele>111</ele>
        <time>2007-03-27T15:43:12Z</time>
      </trkpt>
      <trkpt lat="44.53067" lon="0.73523">
        <ele>111</ele>
        <time>2007-03-27T15:43:12Z</time>
      </trkpt>
      <trkpt lat="44.53045" lon="0.73525">
        <ele>111</ele>
        <time>2007-03-27T15:43:12Z</time>
      </trkpt>
      <trkpt lat="44.53014" lon="0.7352">
        <ele>112</ele>
        <time>2007-03-27T15:43:12Z</time>
      </trkpt>
      <trkpt lat="44.52965" lon="0.7351">
        <ele>111</ele>
        <time>2007-03-27T15:43:12Z</time>
      </trkpt>
      <trkpt lat="44.52938" lon="0.73517">
        <ele>111</ele>
        <time>2007-03-27T15:43:12Z</time>
      </trkpt>
      <trkpt lat="44.52904" lon="0.73553">
        <ele>110</ele>
        <time>2007-03-27T15:43:12Z</time>
      </trkpt>
      <trkpt lat="44.52817" lon="0.73648">
        <ele>106</ele>
        <time>2007-03-27T15:43:12Z</time>
      </trkpt>
      <trkpt lat="44.52791" lon="0.73675">
        <ele>104</ele>
        <time>2007-03-27T15:43:12Z</time>
      </trkpt>
      <trkpt lat="44.52775" lon="0.73709">
        <ele>102</ele>
        <time>2007-03-27T15:43:12Z</time>
      </trkpt>
      <trkpt lat="44.5276" lon="0.73753">
        <ele>102</ele>
        <time>2007-03-27T15:43:12Z</time>
      </trkpt>
      <trkpt lat="44.52725" lon="0.73781">
        <ele>98</ele>
        <time>2007-03-27T15:43:12Z</time>
      </trkpt>
      <trkpt lat="44.52672" lon="0.73812">
        <ele>89</ele>
        <time>2007-03-27T15:43:12Z</time>
      </trkpt>
      <trkpt lat="44.52601" lon="0.73838">
        <ele>80</ele>
        <time>2007-03-27T15:43:12Z</time>
      </trkpt>
      <trkpt lat="44.52601" lon="0.73871">
        <ele>79</ele>
        <time>2007-03-27T15:43:12Z</time>
      </trkpt>
      <trkpt lat="44.52611" lon="0.73894">
        <ele>79</ele>
        <time>2007-03-27T15:43:12Z</time>
      </trkpt>
      <trkpt lat="44.52627" lon="0.73925">
        <ele>78</ele>
        <time>2007-03-27T15:43:12Z</time>
      </trkpt>
      <trkpt lat="44.52652" lon="0.73951">
        <ele>77</ele>
        <time>2007-03-27T15:43:12Z</time>
      </trkpt>
      <trkpt lat="44.52684" lon="0.73946">
        <ele>77</ele>
        <time>2007-03-27T15:43:12Z</time>
      </trkpt>
      <trkpt lat="44.52707" lon="0.7395">
        <ele>77</ele>
        <time>2007-03-27T15:43:12Z</time>
      </trkpt>
      <trkpt lat="44.5272" lon="0.73957">
        <ele>76</ele>
        <time>2007-03-27T15:43:12Z</time>
      </trkpt>
      <trkpt lat="44.52735" lon="0.7398">
        <ele>74</ele>
        <time>2007-03-27T15:43:12Z</time>
      </trkpt>
      <trkpt lat="44.5274" lon="0.74016">
        <ele>72</ele>
        <time>2007-03-27T15:43:12Z</time>
      </trkpt>
      <trkpt lat="44.5274" lon="0.74054">
        <ele>73</ele>
        <time>2007-03-27T15:43:12Z</time>
      </trkpt>
      <trkpt lat="44.52737" lon="0.74106">
        <ele>74</ele>
        <time>2007-03-27T15:43:12Z</time>
      </trkpt>
      <trkpt lat="44.52734" lon="0.74156">
        <ele>75</ele>
        <time>2007-03-27T15:43:12Z</time>
      </trkpt>
      <trkpt lat="44.52729" lon="0.74191">
        <ele>78</ele>
        <time>2007-03-27T15:43:12Z</time>
      </trkpt>
      <trkpt lat="44.52719" lon="0.74234">
        <ele>80</ele>
        <time>2007-03-27T15:43:12Z</time>
      </trkpt>
      <trkpt lat="44.52733" lon="0.74252">
        <ele>81</ele>
        <time>2007-03-27T15:43:12Z</time>
      </trkpt>
      <trkpt lat="44.52762" lon="0.74311">
        <ele>84</ele>
        <time>2007-03-27T15:43:12Z</time>
      </trkpt>
      <trkpt lat="44.52769" lon="0.74382">
        <ele>88</ele>
        <time>2007-03-27T15:43:12Z</time>
      </trkpt>
      <trkpt lat="44.52769" lon="0.74421">
        <ele>91</ele>
        <time>2007-03-27T15:43:12Z</time>
      </trkpt>
      <trkpt lat="44.528" lon="0.74414">
        <ele>87</ele>
        <time>2007-03-27T15:43:12Z</time>
      </trkpt>
      <trkpt lat="44.52824" lon="0.74413">
        <ele>84</ele>
        <time>2007-03-27T15:43:12Z</time>
      </trkpt>
      <trkpt lat="44.5286" lon="0.74428">
        <ele>81</ele>
        <time>2007-03-27T15:43:12Z</time>
      </trkpt>
      <trkpt lat="44.52888" lon="0.74444">
        <ele>83</ele>
        <time>2007-03-27T15:43:12Z</time>
      </trkpt>
      <trkpt lat="44.52948" lon="0.74474">
        <ele>88</ele>
        <time>2007-03-27T15:43:12Z</time>
      </trkpt>
      <trkpt lat="44.52944" lon="0.74493">
        <ele>91</ele>
        <time>2007-03-27T15:43:12Z</time>
      </trkpt>
      <trkpt lat="44.52955" lon="0.74508">
        <ele>90</ele>
        <time>2007-03-27T15:43:12Z</time>
      </trkpt>
      <trkpt lat="44.52959" lon="0.7454">
        <ele>90</ele>
        <time>2007-03-27T15:43:12Z</time>
      </trkpt>
      <trkpt lat="44.52965" lon="0.7459">
        <ele>90</ele>
        <time>2007-03-27T15:43:12Z</time>
      </trkpt>
      <trkpt lat="44.52969" lon="0.74643">
        <ele>90</ele>
        <time>2007-03-27T15:43:12Z</time>
      </trkpt>
      <trkpt lat="44.52972" lon="0.74687">
        <ele>92</ele>
        <time>2007-03-27T15:43:12Z</time>
      </trkpt>
      <trkpt lat="44.52983" lon="0.74714">
        <ele>91</ele>
        <time>2007-03-27T15:43:12Z</time>
      </trkpt>
      <trkpt lat="44.52991" lon="0.74743">
        <ele>91</ele>
        <time>2007-03-27T15:43:12Z</time>
      </trkpt>
      <trkpt lat="44.52993" lon="0.74784">
        <ele>92</ele>
        <time>2007-03-27T15:43:12Z</time>
      </trkpt>
      <trkpt lat="44.52993" lon="0.74822">
        <ele>92</ele>
        <time>2007-03-27T15:43:12Z</time>
      </trkpt>
      <trkpt lat="44.52996" lon="0.74858">
        <ele>93</ele>
        <time>2007-03-27T15:43:12Z</time>
      </trkpt>
      <trkpt lat="44.52996" lon="0.74888">
        <ele>95</ele>
        <time>2007-03-27T15:43:12Z</time>
      </trkpt>
      <trkpt lat="44.52987" lon="0.74904">
        <ele>97</ele>
        <time>2007-03-27T15:43:12Z</time>
      </trkpt>
      <trkpt lat="44.52976" lon="0.74912">
        <ele>98</ele>
        <time>2007-03-27T15:43:12Z</time>
      </trkpt>
      <trkpt lat="44.52965" lon="0.74918">
        <ele>100</ele>
        <time>2007-03-27T15:43:12Z</time>
      </trkpt>
      <trkpt lat="44.52957" lon="0.74944">
        <ele>102</ele>
        <time>2007-03-27T15:43:12Z</time>
      </trkpt>
      <trkpt lat="44.52949" lon="0.74997">
        <ele>103</ele>
        <time>2007-03-27T15:43:12Z</time>
      </trkpt>
      <trkpt lat="44.52947" lon="0.75046">
        <ele>103</ele>
        <time>2007-03-27T15:43:12Z</time>
      </trkpt>
      <trkpt lat="44.52947" lon="0.75089">
        <ele>103</ele>
        <time>2007-03-27T15:43:12Z</time>
      </trkpt>
      <trkpt lat="44.52947" lon="0.75112">
        <ele>102</ele>
        <time>2007-03-27T15:43:12Z</time>
      </trkpt>
      <trkpt lat="44.52938" lon="0.75142">
        <ele>102</ele>
        <time>2007-03-27T15:43:12Z</time>
      </trkpt>
      <trkpt lat="44.52914" lon="0.75179">
        <ele>103</ele>
        <time>2007-03-27T15:43:12Z</time>
      </trkpt>
      <trkpt lat="44.52895" lon="0.7521">
        <ele>102</ele>
        <time>2007-03-27T15:43:12Z</time>
      </trkpt>
      <trkpt lat="44.52876" lon="0.75246">
        <ele>103</ele>
        <time>2007-03-27T15:43:12Z</time>
      </trkpt>
      <trkpt lat="44.52871" lon="0.75261">
        <ele>103</ele>
        <time>2007-03-27T15:43:12Z</time>
      </trkpt>
      <trkpt lat="44.52866" lon="0.75281">
        <ele>104</ele>
        <time>2007-03-27T15:43:12Z</time>
      </trkpt>
      <trkpt lat="44.52847" lon="0.75318">
        <ele>104</ele>
        <time>2007-03-27T15:43:12Z</time>
      </trkpt>
      <trkpt lat="44.52853" lon="0.75344">
        <ele>105</ele>
        <time>2007-03-27T15:43:12Z</time>
      </trkpt>
      <trkpt lat="44.52854" lon="0.7536">
        <ele>106</ele>
        <time>2007-03-27T15:43:12Z</time>
      </trkpt>
      <trkpt lat="44.52854" lon="0.75399">
        <ele>107</ele>
        <time>2007-03-27T15:43:12Z</time>
      </trkpt>
      <trkpt lat="44.52868" lon="0.75402">
        <ele>109</ele>
        <time>2007-03-27T15:43:12Z</time>
      </trkpt>
      <trkpt lat="44.52899" lon="0.75392">
        <ele>111</ele>
        <time>2007-03-27T15:43:12Z</time>
      </trkpt>
      <trkpt lat="44.52929" lon="0.75367">
        <ele>111</ele>
        <time>2007-03-27T15:43:12Z</time>
      </trkpt>
      <trkpt lat="44.52952" lon="0.75345">
        <ele>112</ele>
        <time>2007-03-27T15:43:12Z</time>
      </trkpt>
      <trkpt lat="44.52976" lon="0.75328">
        <ele>112</ele>
        <time>2007-03-27T15:43:12Z</time>
      </trkpt>
      <trkpt lat="44.52983" lon="0.75336">
        <ele>113</ele>
        <time>2007-03-27T15:43:12Z</time>
      </trkpt>
      <trkpt lat="44.53008" lon="0.75359">
        <ele>115</ele>
        <time>2007-03-27T15:43:12Z</time>
      </trkpt>
      <trkpt lat="44.53036" lon="0.75404">
        <ele>116</ele>
        <time>2007-03-27T15:43:12Z</time>
      </trkpt>
      <trkpt lat="44.53044" lon="0.75432">
        <ele>117</ele>
        <time>2007-03-27T15:43:12Z</time>
      </trkpt>
      <trkpt lat="44.53058" lon="0.7549">
        <ele>118</ele>
        <time>2007-03-27T15:43:12Z</time>
      </trkpt>
      <trkpt lat="44.53075" lon="0.75484">
        <ele>119</ele>
        <time>2007-03-27T15:43:12Z</time>
      </trkpt>
      <trkpt lat="44.53105" lon="0.75477">
        <ele>120</ele>
        <time>2007-03-27T15:43:12Z</time>
      </trkpt>
      <trkpt lat="44.53146" lon="0.75475">
        <ele>120</ele>
        <time>2007-03-27T15:43:12Z</time>
      </trkpt>
      <trkpt lat="44.53188" lon="0.75476">
        <ele>121</ele>
        <time>2007-03-27T15:43:12Z</time>
      </trkpt>
      <trkpt lat="44.53195" lon="0.75486">
        <ele>121</ele>
        <time>2009-01-04T18:51:07Z</time>
      </trkpt>
      <trkpt lat="44.53181" lon="0.75616">
        <ele>123</ele>
        <time>2007-03-27T15:43:12Z</time>
      </trkpt>
      <trkpt lat="44.53178" lon="0.75712">
        <ele>123</ele>
        <time>2007-03-27T15:43:12Z</time>
      </trkpt>
      <trkpt lat="44.53179" lon="0.75835">
        <ele>123</ele>
        <time>2007-03-27T15:43:12Z</time>
      </trkpt>
      <trkpt lat="44.53182" lon="0.75917">
        <ele>122</ele>
        <time>2007-03-27T15:43:12Z</time>
      </trkpt>
      <trkpt lat="44.53178" lon="0.76002">
        <ele>122</ele>
        <time>2007-03-27T15:43:12Z</time>
      </trkpt>
      <trkpt lat="44.53175" lon="0.76082">
        <ele>123</ele>
        <time>2007-03-27T15:43:12Z</time>
      </trkpt>
      <trkpt lat="44.53179" lon="0.76138">
        <ele>124</ele>
        <time>2007-03-27T15:43:12Z</time>
      </trkpt>
      <trkpt lat="44.53185" lon="0.76187">
        <ele>126</ele>
        <time>2007-03-27T15:43:12Z</time>
      </trkpt>
      <trkpt lat="44.53209" lon="0.76332">
        <ele>132</ele>
        <time>2007-03-27T15:43:12Z</time>
      </trkpt>
      <trkpt lat="44.5321" lon="0.76364">
        <ele>134</ele>
        <time>2007-03-27T15:43:12Z</time>
      </trkpt>
      <trkpt lat="44.53209" lon="0.76389">
        <ele>135</ele>
        <time>2007-03-27T15:43:12Z</time>
      </trkpt>
      <trkpt lat="44.53208" lon="0.7642">
        <ele>135</ele>
        <time>2007-03-27T15:43:12Z</time>
      </trkpt>
      <trkpt lat="44.53196" lon="0.76479">
        <ele>137</ele>
        <time>2007-03-27T15:43:12Z</time>
      </trkpt>
      <trkpt lat="44.53192" lon="0.76517">
        <ele>139</ele>
        <time>2007-03-27T15:43:12Z</time>
      </trkpt>
      <trkpt lat="44.5319" lon="0.76555">
        <ele>147</ele>
        <time>2007-03-27T15:43:12Z</time>
      </trkpt>
      <trkpt lat="44.53154" lon="0.76581">
        <ele>150</ele>
        <time>2007-03-27T15:43:12Z</time>
      </trkpt>
      <trkpt lat="44.53129" lon="0.76603">
        <ele>150</ele>
        <time>2007-03-27T15:43:12Z</time>
      </trkpt>
      <trkpt lat="44.53116" lon="0.76621">
        <ele>151</ele>
        <time>2007-03-27T15:43:12Z</time>
      </trkpt>
      <trkpt lat="44.53101" lon="0.76648">
        <ele>152</ele>
        <time>2007-03-27T15:43:12Z</time>
      </trkpt>
      <trkpt lat="44.53091" lon="0.76682">
        <ele>155</ele>
        <time>2007-03-27T15:43:12Z</time>
      </trkpt>
      <trkpt lat="44.53079" lon="0.76707">
        <ele>156</ele>
        <time>2007-03-27T15:43:12Z</time>
      </trkpt>
      <trkpt lat="44.53069" lon="0.7675">
        <ele>158</ele>
        <time>2007-03-27T15:43:12Z</time>
      </trkpt>
      <trkpt lat="44.53058" lon="0.76785">
        <ele>157</ele>
        <time>2007-03-27T15:43:12Z</time>
      </trkpt>
      <trkpt lat="44.53052" lon="0.76808">
        <ele>157</ele>
        <time>2007-03-27T15:43:12Z</time>
      </trkpt>
      <trkpt lat="44.53045" lon="0.76842">
        <ele>157</ele>
        <time>2007-03-27T15:43:12Z</time>
      </trkpt>
      <trkpt lat="44.53037" lon="0.76848">
        <ele>155</ele>
        <time>2007-03-27T15:43:12Z</time>
      </trkpt>
      <trkpt lat="44.53022" lon="0.76868">
        <ele>152</ele>
        <time>2007-03-27T15:43:12Z</time>
      </trkpt>
    </trkseg>
  </trk>
</gpx>